Location: Colonia Mina de C?rbuni
(46.1667°N, 22.7167°E)
Time: 04:11:01
(UTC+00:00)

Transit 4A - Pass Details

Date: 18 April 2024
Orbit: 871 x 971 km, 66.8° (Epoch: 24 May)

Event Time Altitude Azimuth Distance (km) Brightness Sun altitude
Rises 18:29:15 0° 330° (NNW) 3,474 12.0 -11.7°
Reaches altitude 10° 18:32:17 10° 345° (NNW) 2,529 10.9 -12.1°
Maximum altitude 18:36:51 23° 37° (NE) 1,771 9.3 -12.8°
Enters shadow 18:41:02 12° 86° (E) 2,421 9.6 -13.4°
